Location: Bullenkuhlen
(53.7689°N, 9.7495°E)
Time: 08:21:57
(UTC+00:00)

Daily predictions for brighter satellites

Satellite Brightness Start Highest point End
(mag) Time Altitude Azimuth Time Altitude Azimuth Time Altitude Azimuth
STARLINK-1240 3.8 18:41:41 10° W 18:45:49 69° SSW 18:49:56 10° ESE
SJ-6B 2.9 18:42:59 10° SSE 18:47:06 73° ENE 18:51:14 10° N
Resurs 1-3 4.1 18:43:25 10° SE 18:47:34 43° ENE 18:51:44 10° N
Aureole 1 Rocket 4.1 18:40:49 10° S 18:47:37 51° ESE 18:52:56 10° NE
Cosmos 2369 Rocket 4.3 18:44:05 10° NW 18:48:47 27° WSW 18:53:27 10° SSW
Cosmos 1300 4.1 18:46:00 10° SE 18:48:49 20° E 18:51:40 10° NE
STARLINK-1216 3.8 18:46:39 10° W 18:50:47 67° SSW 18:54:54 10° ESE
STARLINK-60 3.9 18:48:29 10° SW 18:51:26 31° SSE 18:54:23 10° E
CZ-2C R/B 4.4 18:48:47 10° NNE 18:53:08 35° E 18:57:21 10° SSE
Terra 4.0 18:53:30 10° ENE 18:54:45 11° NE 18:55:59 10° NNE
STARLINK-1237 3.8 18:51:36 10° W 18:55:43 65° SSW 18:59:49 10° ESE
STARLINK-1202 3.8 18:56:36 10° W 19:00:43 63° SSW 19:04:42 11° ESE
Cosmos 2058 Rocket 3.4 18:56:50 10° SSE 19:01:09 48° E 19:05:30 10° NNE
Cosmos 1461 4.0 18:57:39 10° NW 19:01:59 47° SW 19:06:26 10° SSE
Cosmos 1726 Rocket 3.5 18:59:23 10° S 19:03:47 74° E 19:08:15 10° NNE
SL-08 RB Rocket 3.8 18:59:33 10° SSE 19:04:09 89° ENE 19:08:49 10° NNW
Cosmos 921 Rocket 2.9 18:59:58 10° NNW 19:04:11 89° WSW 19:08:24 10° SSE
Cosmos 1703 4.0 19:00:32 10° NNW 19:04:26 58° W 19:08:20 10° S
Cosmos 2341 Rocket 4.2 18:58:40 10° N 19:05:00 60° ENE 19:11:19 10° SSE
ADEOS Rocket 4.2 19:00:50 10° N 19:07:01 48° WNW 19:12:37 10° SW
SL-4 R/B 2.0 19:04:25 10° SW 19:07:40 43° SSE 19:10:56 10° E
Cosmos 1726 3.1 19:04:50 10° SSW 19:08:30 52° WNW 19:12:09 10° N
CZ-4C R/B 3.5 19:02:40 10° NW 19:08:50 45° NNE 19:16:07 10° E
STARLINK-1246 3.9 19:06:33 10° W 19:10:38 58° SSW 19:14:15 13° ESE
ERS-1 Rocket 4.5 19:07:05 10° ESE 19:10:48 21° NE 19:14:30 10° N
RESURS DK-1 3.6 19:07:19 10° NNW 19:11:01 30° NE 19:14:21 12° ESE
STARLINK-1201 4.3 19:08:52 10° W 19:11:48 31° SSW 19:14:33 11° SE
Cosmos 407 Rocket 3.4 19:06:53 10° SSW 19:11:58 67° ESE 19:17:05 10° NNE
Cosmos 1908 3.2 19:08:18 10° S 19:12:12 90° NNE 19:16:08 10° NNE
Cosmos 1340 Rocket 2.8 19:08:41 10° S 19:12:40 60° E 19:16:38 10° NNE
FREGAT/IRIS 4.1 19:10:26 10° SSW 19:12:57 34° W 19:15:30 10° NNW
Cosmos 2228 3.2 19:10:23 10° SSW 19:14:42 77° WNW 19:19:06 10° N
STARLINK-1224 4.0 19:11:34 10° W 19:15:38 56° SSW 19:19:04 14° SE
Cosmos 676 Rocket 4.4 19:10:46 10° S 19:15:41 41° ESE 19:20:35 10° NE
Cosmos 2218 Rocket 4.4 19:10:09 10° N 19:16:09 47° ENE 19:22:11 10° SE
STARLINK-1203 4.1 19:13:41 10° W 19:17:48 53° SSW 19:21:13 14° SE
Cosmos 2058 3.7 19:14:13 10° N 19:18:01 34° ENE 19:21:10 14° SE
Cosmos 220 Rocket 4.1 19:13:57 10° NNW 19:18:16 62° ENE 19:22:11 12° SE
Cosmos 1943 3.7 19:13:24 10° SW 19:19:03 65° NW 19:24:46 10° NNE
STARLINK-1225 4.0 19:16:33 10° W 19:20:36 54° SSW 19:23:51 15° SE
MOS 1 Rocket 3.9 19:15:37 10° NNE 19:20:51 48° E 19:26:06 10° S
MetOp-A 4.2 19:15:44 10° SSE 19:21:06 88° WSW 19:26:31 10° NNW
CZ-2C R/B 2.9 19:17:15 10° NNE 19:22:12 44° E 19:27:09 10° S
Resurs 01 Rocket 1.7 19:18:04 10° SSE 19:22:25 64° ENE 19:26:49 10° N
STARLINK-52 4.0 19:21:30 10° SSW 19:24:15 26° SSE 19:25:57 17° ESE
STARLINK-1230 4.0 19:21:31 10° W 19:25:33 51° SSW 19:28:37 16° SE
Cosmos 962 Rocket 4.5 19:19:44 10° N 19:25:57 85° E 19:32:05 10° S
Nadezhda 1 Rocket 4.1 19:20:46 10° S 19:27:10 85° W 19:33:32 10° N
BREEZE M DEB (TANK) 4.2 19:24:21 10° S 19:27:36 25° SE 19:34:47 10° ENE
Cosmos 1697 Rocket 3.5 19:23:08 10° NNW 19:28:26 38° NE 19:32:44 15° ESE
SL-8 Rocket 4.1 19:22:15 10° N 19:28:34 65° ENE 19:34:50 10° SSE
Cosmos 1812 Rocket 4.4 19:25:20 12° SSE 19:28:42 29° E 19:32:29 10° NNE
Cosmos 2151 4.4 19:25:29 10° NNE 19:28:51 23° ENE 19:30:59 16° ESE
SPOT 3 Rocket 3.8 19:25:01 10° S 19:30:12 72° WSW 19:35:26 10° NNW
STARLINK-1243 4.1 19:26:29 10° W 19:30:30 49° SSW 19:33:24 17° SE
Cosmos 1023 Rocket 4.4 19:25:47 10° SSW 19:30:55 73° ESE 19:36:03 10° NNE
SL-24 R/B - RUBIN 2 4.3 19:25:41 10° SSW 19:31:27 74° SE 19:37:54 10° NE
ARGOS 4.2 19:26:40 10° S 19:31:51 47° W 19:37:02 10° NNW
FALCON 9 DEB 3.9 19:29:25 10° SW 19:32:34 32° SSE 19:34:32 18° E
STARLINK-1236 4.2 19:31:28 10° W 19:35:28 47° SSW 19:38:11 19° SE
Iridium 2 4.2 19:33:27 14° SSE 19:36:27 40° E 19:40:03 10° NNE
Cosmos 1954 Rocket 4.0 19:32:06 10° S 19:37:13 56° ESE 19:42:19 10° NNE
USA 186 4.3 19:34:46 10° SSW 19:37:21 22° W 19:39:49 10° NW
Cosmos 2181 Rocket 4.1 19:31:26 10° SSE 19:37:25 52° E 19:43:23 10° NNE
Cosmos 2366 rocket 4.0 19:36:34 10° N 19:42:42 65° ENE 19:48:11 13° SSE
Cosmos 1076 Rocket 3.6 19:38:57 10° N 19:43:12 60° ENE 19:46:20 18° SSE
Cosmos 1818 4.2 19:39:57 10° WSW 19:45:20 59° NW 19:50:46 10° NE
STARLINK-1269 4.3 19:41:26 10° W 19:45:22 43° SSW 19:47:44 21° SE
Cosmos 1656 3.8 19:41:42 10° NNW 19:47:26 69° NE 19:51:23 20° SE
Cosmos 1763 Rocket 3.5 19:42:43 10° NNW 19:47:56 69° ENE 19:51:29 20° SE
Landsat 7 4.2 19:46:17 20° SE 19:49:20 48° ENE 19:53:56 10° N
SL-16 R/B 4.1 19:45:18 10° NNW 19:49:24 20° NNE 19:53:30 10° ENE
Cosmos 2360 Rocket 4.5 19:46:14 10° NNW 19:49:27 15° NNE 19:52:41 10° NE
STARLINK-1200 4.4 19:46:25 10° W 19:50:20 41° SSW 19:52:31 22° SSE
Cosmos 540 Rocket 4.1 19:46:33 10° NNW 19:51:31 43° NE 19:54:30 22° ESE
Cosmos 2208 Rocket 4.4 19:47:21 10° NNW 19:52:25 48° NE 19:55:32 22° ESE
SPOT 1/Viking Rocket 3.9 19:50:06 20° SE 19:53:28 49° ENE 19:58:30 10° N
STARLINK-1192 4.4 19:51:25 10° W 19:55:17 39° SSW 19:57:18 23° SSE
SeaSat 1 3.8 19:50:44 10° NNE 19:55:23 42° NW 20:00:01 10° WSW
Cosmos 2322 Rocket 4.2 19:52:22 10° NNW 19:56:23 19° NNE 20:00:22 10° ENE
Iridium 4 Rocket 3.0 19:52:31 10° N 19:56:41 57° E 19:59:06 23° SSE
Cosmos 1455 3.4 19:56:32 24° E 19:56:55 24° E 20:00:03 10° NE
USA 234 4.0 19:52:49 10° ENE 19:58:11 26° SE 20:03:31 10° S
Cosmos 1980 Rocket 3.1 19:53:24 10° NNW 19:58:36 37° NE 20:02:02 19° E
Cosmos 1174 4.4 19:55:33 10° NW 19:59:30 59° SW 20:02:39 21° SSE
Cosmos 1892 2.7 19:56:14 10° N 20:00:08 69° ENE 20:02:13 26° SSE
Cosmos 1814 Rocket 4.4 19:57:44 10° NNW 20:03:00 51° ENE 20:05:55 25° ESE
Cosmos 1825 3.0 20:01:11 10° N 20:04:41 34° ENE 20:05:39 29° ESE
H-2A R/B 4.3 20:01:46 10° SW 20:05:42 22° W 20:09:34 10° NW
ATLAS 5 CENTAUR R/B 1.7 20:02:18 10° SW 20:06:36 82° NW 20:11:36 10° NE
COSMOS 2455 4.2 20:02:58 10° NW 20:08:19 34° WSW 20:13:39 10° S
Cosmos-2242 3.8 20:08:42 29° ESE 20:09:38 32° E 20:13:33 10° NNE
Cosmos 489 Rocket 4.4 20:06:26 10° NNW 20:12:41 78° ENE 20:16:28 25° SE
ERBS 3.6 20:10:27 10° WNW 20:13:26 29° SW 20:14:20 25° S
Cosmos 1140 Rocket 4.1 20:09:03 10° SW 20:14:10 59° WNW 20:19:18 10° NNE
Cosmos 1356 Rocket 4.0 20:13:46 33° SE 20:14:47 38° E 20:18:43 10° NNE
SAR-Lupe-2 3.4 20:15:44 10° NNE 20:19:20 79° ESE 20:21:14 26° S
STARLINK-29 3.0 20:16:37 10° WSW 20:19:44 53° SSE 20:19:44 53° SSE
Cosmos 2344 4.4 20:11:06 10° NW 20:19:46 68° NNE 20:28:34 20° ESE
ATLAS CENTAUR R/B 1.2 20:17:05 10° NW 20:21:03 68° NE 20:22:10 42° ESE
IGS 5A 3.4 20:20:27 33° SSE 20:22:17 85° ENE 20:26:28 10° NNW
Cosmos 1821 Rocket 4.2 20:17:02 10° N 20:23:21 58° ENE 20:26:40 28° SE
USA 32 4.0 20:18:34 10° N 20:23:49 68° E 20:26:23 30° SSE
SWARM A 4.4 20:23:45 50° E 20:23:55 51° E 20:27:11 10° NNE
Cosmos 1300 3.8 20:20:33 10° SSW 20:24:13 44° WNW 20:27:55 10° N
Spot 2 Rocket 3.7 20:22:15 21° S 20:25:43 71° WSW 20:30:50 10° NNW
Cosmos 2360 4.4 20:20:55 10° NNW 20:26:36 62° NE 20:29:15 31° ESE
Cosmos 841 Rocket 3.5 20:21:49 10° NNW 20:27:08 80° ENE 20:29:32 33° SE
STARLINK-60 2.8 20:24:15 10° WSW 20:27:31 73° S 20:27:48 67° SE
Cosmos 1850 Rocket 3.9 20:24:22 12° S 20:29:09 63° ESE 20:34:18 10° NNE
Mayak 0.8 20:27:04 10° NE 20:28:23 14° ENE 20:28:23 14° ENE
Cosmos 2278 3.9 20:24:19 10° NNW 20:29:57 62° NE 20:32:29 32° ESE
Terra 2.2 20:29:53 35° ESE 20:31:27 49° ENE 20:36:02 10° N
SL-08 R/B 4.5 20:26:33 10° NNW 20:32:43 85° W 20:36:45 23° S
SPOT 5 2.6 20:31:40 41° SE 20:32:58 62° ENE 20:37:17 10° N
Cosmos 2082 Rocket 3.4 20:34:09 23° E 20:34:09 23° E 20:37:47 10° NE
Meteor 2-10 Rocket 3.7 20:33:52 33° SSE 20:36:05 56° E 20:41:27 10° NNE
Cosmos 1833 Rocket 3.2 20:39:02 36° SE 20:39:46 37° ESE 20:44:55 10° NE
CARTOSAT-1 3.5 20:39:31 46° SSE 20:40:46 78° ENE 20:45:06 10° NNW
Cosmos 1408 2.8 20:42:29 10° NNW 20:46:08 64° W 20:46:55 48° SSW
SL-4 R/B 1.8 20:43:36 10° W 20:46:33 54° SW 20:46:33 54° SW
ERS-1 Rocket 2.9 20:47:01 37° S 20:49:03 82° WSW 20:54:07 10° NNW
RESURS DK-1 2.9 20:45:14 10° NW 20:49:15 50° WSW 20:50:15 40° SSW
Cosmos 1766 Rocket 3.5 20:47:12 10° NNW 20:51:42 89° WSW 20:52:50 51° S
Cosmos 1570 Rocket 4.4 20:47:00 10° NNW 20:52:17 60° WSW 20:54:32 33° S
Okean 3 Rocket 3.6 20:48:48 10° NNW 20:53:15 75° W 20:54:33 45° S
BREEZE M DEB (TANK) 3.7 20:49:11 10° WSW 20:53:25 35° SSW 20:53:25 35° SSW
CZ-4C R/B 2.8 20:51:14 10° NW 20:58:08 89° SW 21:01:49 36° SE
Resurs 01 Rocket 3.9 20:56:07 10° SW 20:59:20 20° W 21:02:35 10° NW
COSMOS 2406 3.1 20:54:53 16° SSW 20:59:30 76° ESE 21:05:15 10° NE
Cosmos 1500 Rocket 4.2 20:57:39 10° N 21:01:47 40° ENE 21:01:56 40° ENE
CZ-2C R/B 4.0 20:57:45 10° N 21:02:27 36° WNW 21:07:11 10° SW
Cosmos 2151 3.6 21:02:21 10° NNW 21:06:25 49° W 21:07:34 38° SW
FALCON 9 DEB 4.5 21:05:52 10° WSW 21:07:53 32° WSW 21:07:53 32° WSW
Cosmos 1697 Rocket 3.1 21:07:08 10° NW 21:12:40 56° WSW 21:14:29 39° S
Cosmos 2369 4.0 21:07:16 10° NW 21:12:48 57° WSW 21:14:34 40° S
Cosmos 1408 Rocket 3.8 21:26:33 10° NNW 21:30:58 61° W 21:31:22 58° SW
Cosmos 1455 3.5 21:31:25 31° WSW 21:32:22 37° WNW 21:35:59 10° N
Cosmos 540 Rocket 4.4 21:28:20 10° NW 21:33:06 38° WSW 21:34:20 33° SW
Cosmos 1743 Rocket 3.5 21:29:14 10° N 21:33:44 82° ENE 21:33:44 82° ENE
SL-16 R/B 2.6 21:29:15 10° NNW 21:34:50 53° NE 21:36:11 44° E
Cosmos 2360 Rocket 3.5 21:30:15 10° NNW 21:35:18 32° NE 21:37:32 24° E
Thor Agena Rocket 3.9 21:31:49 10° NNE 21:36:20 46° E 21:36:20 46° E
Cosmos 1825 3.9 21:36:55 10° NNW 21:40:05 25° W 21:40:28 25° W
Cosmos 836 Rocket 4.3 21:35:50 10° NNW 21:41:07 89° W 21:41:41 73° SSE
Cosmos 2322 Rocket 2.7 21:36:16 10° NNW 21:41:48 51° NE 21:43:04 43° E
USA 234 3.1 21:35:30 10° ENE 21:42:02 67° SSE 21:48:32 10° SW
Cosmos 1980 Rocket 2.4 21:37:23 10° NW 21:42:55 58° WSW 21:43:48 52° SSW
Nadezhda 3 Rocket 4.3 21:41:26 29° SSW 21:44:42 63° WNW 21:50:57 10° N
Cosmos 2221 2.9 21:46:37 54° NE 21:46:37 54° NE 21:50:12 10° NNE
Cosmos-2242 4.5 21:45:30 25° WSW 21:47:11 34° WNW 21:51:12 10° N
ASTEX 1 3.6 21:50:00 59° SW 21:50:35 64° W 21:55:32 10° N
ATLAS 5 CENTAUR R/B 3.5 21:47:45 10° W 21:51:54 32° NNW 21:56:42 10° NE
Meteor 2-3 Rocket 4.2 21:48:27 10° NNW 21:54:01 52° W 21:55:21 43° SW
Cosmos 2333 Rocket 4.0 21:52:26 10° NNW 21:57:03 25° NNE 22:00:26 15° ENE
Cosmos 2084 4.0 21:53:42 10° NW 21:57:21 55° W 21:57:21 55° W
Cosmos 1633 3.9 21:54:38 10° NNW 21:56:58 38° NNW 21:56:58 38° NNW
ATLAS CENTAUR R/B 3.4 21:56:42 10° WNW 21:58:21 17° W 21:58:21 17° W
Mayak -0.8 22:01:28 10° N 22:04:58 60° NNW 22:04:58 60° NNW
Cosmos 1727 Rocket 4.0 22:05:51 57° ESE 22:06:27 60° E 22:12:41 10° NNE
Cosmos 1153 Rocket 4.4 22:01:18 10° N 22:07:40 84° E 22:08:42 65° SSE
EO 1 Del DPAF 4.4 22:04:08 10° NNE 22:06:33 38° NNE 22:06:33 38° NNE
Cosmos 1666 Rocket 4.4 22:04:48 10° N 22:08:19 43° NE 22:08:19 43° NE
Cosmos 1842 Rocket 3.9 22:09:34 60° NW 22:09:34 60° NW 22:13:31 10° N
Terra 3.2 22:08:45 27° WSW 22:09:25 28° W 22:13:33 10° NNW
Cosmos 773 Rocket 4.2 22:08:14 10° NNW 22:13:23 59° ENE 22:13:37 58° ENE
Cosmos 1241 Rocket 4.4 22:09:36 10° NW 22:15:54 80° NE 22:17:01 62° ESE
Sich 1 3.5 22:11:26 10° N 22:15:12 59° NNE 22:15:12 59° NNE
Cosmos 2082 Rocket 2.2 22:15:56 61° SW 22:16:56 79° WNW 22:22:40 10° NNE
Cosmos 1802 Rocket 4.2 22:11:19 10° N 22:17:24 54° ENE 22:18:13 50° E
Cosmos 2100 Rocket 3.9 22:13:39 10° N 22:19:53 70° ENE 22:20:40 63° ESE
Cosmos 1869 4.3 22:21:30 44° N 22:21:30 44° N 22:24:23 10° N
Cosmos 1486 Rocket 3.9 22:22:40 87° NNW 22:22:40 87° NNW 22:27:55 10° NNE
Cosmos 1833 Rocket 3.3 22:20:38 27° WSW 22:23:35 52° NW 22:29:07 10° NNE
Meteor 2-2 Rocket 4.1 22:24:28 78° SSW 22:24:52 86° WNW 22:30:33 10° NNE
Cosmos 968 Rocket 3.6 22:25:40 68° ENE 22:25:40 68° ENE 22:30:24 10° NNE
Cosmos 2173 Rocket 3.9 22:19:32 10° N 22:25:40 71° ENE 22:26:16 66° ESE
Cosmos 1605 Rocket 4.4 22:22:16 10° NNW 22:28:12 51° W 22:29:21 45° SW
Cosmos 1315 Rocket 4.4 22:31:48 29° NE 22:31:48 29° NE 22:34:08 10° NNE
Cosmos 2219 Rocket 3.6 22:27:23 10° NNW 22:32:26 32° NE 22:34:42 24° E
ALOS 2 3.1 22:36:50 58° NNW 22:36:50 58° NNW 22:40:23 10° NNW
NOSS 2-1 (C) 4.1 22:32:22 10° NW 22:37:02 76° WSW 22:37:02 76° WSW
Cosmos 1805 Rocket 4.5 22:36:57 10° NNW 22:40:32 45° WNW 22:40:32 45° WNW
NOSS 2-1 (D) 4.2 22:36:36 10° NW 22:41:11 71° WSW 22:41:11 71° WSW
Cosmos 1346 Rocket 4.1 22:40:00 10° NNW 22:42:41 39° NNW 22:42:41 39° NNW
Cosmos 1340 4.4 22:41:02 10° NNW 22:43:13 30° NW 22:43:13 30° NW
CZ-4C R/B 3.9 22:40:07 10° WNW 22:46:20 32° WSW 22:47:00 31° SW
Cosmos 44 4.1 22:47:53 39° NNE 22:47:53 39° NNE 22:50:43 10° NE
Cosmos 2237 4.1 22:45:45 10° NNW 22:51:32 82° ENE 22:51:39 81° E
Cosmos 1470 Rocket 4.4 22:49:28 10° N 22:52:49 47° NNE 22:52:49 47° NNE
Cosmos 1151 Rocket 4.3 22:55:27 34° NE 22:55:27 34° NE 22:58:14 10° NNE
Cosmos 1000 Rocket 4.4 22:56:39 73° SE 22:57:04 77° E 23:03:23 10° NNE
Cosmos 1633 Rocket 3.8 22:52:50 10° NNW 22:56:12 50° NNW 22:56:12 50° NNW
Helios 1A 4.0 22:59:02 45° NNW 22:59:02 45° NNW 23:02:03 10° NNW
Cosmos 2322 4.0 22:52:49 10° NNW 22:58:30 59° NE 22:59:14 54° E
COSMOS 2428 3.6 22:56:33 10° NNW 23:02:01 43° NE 23:03:37 35° E
Cosmos 2333 4.5 22:57:38 10° NNW 23:03:12 59° NE 23:03:49 55° E
Cosmos 1607 4.1 23:12:04 46° WSW 23:13:51 67° NW 23:20:08 10° NE
Cosmos 839 Rocket 4.2 23:14:56 56° ESE 23:14:56 56° ESE 23:21:31 10° NE
Meteor 1-20 Rocket 4.2 23:11:06 10° NNW 23:16:56 81° ENE 23:16:59 81° E
Cosmos 1354 Rocket 4.2 23:17:36 65° WNW 23:17:36 65° WNW 23:22:51 10° NNE
SL-16 R/B 3.2 23:13:39 10° NW 23:18:02 35° W 23:18:02 35° W
Cosmos 2360 Rocket 2.3 23:14:11 10° NW 23:19:17 66° W 23:19:17 66° W
Helios 1B rocket 4.0 23:19:42 10° NNE 23:22:09 30° NE 23:22:09 30° NE
USA 234 3.4 23:18:38 10° ENE 23:25:10 74° NNW 23:31:42 10° W
Cosmos 1980 Rocket 4.5 23:24:02 10° WNW 23:25:34 11° W 23:25:34 11° W
Cosmos 2322 Rocket 3.1 23:20:34 10° NW 23:24:52 36° W 23:24:52 36° W
Cosmos 2061 Rocket 4.1 23:24:17 10° NNW 23:30:28 63° W 23:30:49 62° WSW
Cosmos 923 Rocket 4.1 23:27:58 10° NNW 23:32:50 74° N 23:32:50 74° N
Cosmos 1606 4.3 23:34:56 35° N 23:34:56 35° N 23:37:16 10° N
ATLAS 5 CENTAUR R/B 3.8 23:33:26 10° NW 23:37:51 30° N 23:42:56 10° ENE
MOS 1-B Rocket 4.1 23:33:06 10° NNE 23:39:18 85° WNW 23:40:21 66° SSW
Mayak 1.4 23:38:38 10° NNW 23:40:29 13° NW 23:41:32 12° WNW
Cosmos 2333 Rocket 2.1 23:36:32 10° NNW 23:42:14 79° ENE 23:42:25 78° E
Cosmos 2237 Rocket 3.4 23:37:54 10° NNW 23:43:13 39° NE 23:46:25 21° E
Cosmos 1515 Rocket 4.3 23:45:21 50° NNE 23:45:21 50° NNE 23:48:38 10° NNE
SME Rocket 3.9 23:42:56 10° NNE 23:46:10 46° N 23:46:10 46° N
Cosmos 2233 Rocket 3.8 23:41:05 10° NNW 23:47:24 84° W 23:47:50 78° SSW
Cosmos 1680 Rocket 3.5 23:44:15 10° NNW 23:49:10 77° N 23:49:10 77° N
Lacrosse 5 rocket 3.9 23:54:19 12° ENE 23:54:19 12° ENE 23:54:42 10° ENE
SL-16 R/B 3.4 23:48:42 29° ESE 23:51:22 43° ENE 23:57:12 10° N
Cosmos 44 Rocket 3.8 23:53:59 52° NE 23:53:59 52° NE 23:57:36 10° NE
PSLV R/B 4.3 23:49:15 10° NNE 23:52:52 53° NE 23:52:52 53° NE
